Terminal Aerodrome Forecast
Issued by NWS Bismarck, ND

Home | Current Version | Previous Version | Graphics & Text | Print | Product List | Glossary On
Versions: 1 2 3 4 5 6 7 8 9 10 11 12 13 14
000
FTUS43 KBIS 211700
TAFBIS
TAF
KBIS 211739Z 2118/2218 17006KT P6SM SCT200
     FM212100 24008KT P6SM SKC=

USA.gov is the U.S. government's official web portal to all federal, state and local government web resources and services.